FENGYUN 1C DEB

Satellite information

Favourite Embed

Satellite Type and Status

DEBRISIN ORBIT

Key statistics

Satellite FENGYUN 1C DEB at a glance.

Uptime

9615

Days in orbit

Revolutions

≈ 13.5

Per day

Orbit

SSO

Sun Synchronous Orbit

Inclination

98.4

Latest

Satellite identification and parameters

Extended collection of information and parameters for FENGYUN 1C DEB.

Object identification

Identified? True

Debris? True

Object name: FENGYUN 1C DEB

International designator: 1999-025CMA

Object number (NORAD): 31923

Object ID (CCSDS): 31923

Country: PEOPLES REPUBLIC OF CHINA (PRC)

Current information (Y/N): Y

RCS size: SMALL

Orbital parameters

Period: 106.307 minutes

Inclination: 98.4354 deg

SMA: 7433.635 km

Apoapsis: 1280.108 km

Periapsis: 830.892 km

RAAN: 351.876 deg

Eccentricy: 0.03021512

Argument of periapsis: 213.3415 deg

Mean anomaly: 144.8372 deg

Mean motion: 13.54568292 rev/day

Mean motion (dot): 0.00002016 rev/day2

B* drag term: 0.0022419032 1/REarth

Two-line elements (TLE)

Creation date: Aug. 31, 2025, 11:35 a.m.

Reference frame: TEME

Reference center: EARTH

Epoch: Aug. 31, 2025, 5:37 a.m. UTC

TLE line 0: 0 FENGYUN 1C DEB

TLE line 1: 1 31923U 99025CMA 25243.23459965 .00002016 00000-0 22419-2 0 9991

TLE line 2: 2 31923 98.4354 351.8760 0302151 213.3415 144.8372 13.54568292622334

Live tracking on map

Real-time ground track for satellite FENGYUN 1C DEB.

In-orbit conjunctions

A list of the most updated potential collisions computed for object FENGYUN 1C DEB.

Target Orbit TCA Probability of collision Miss distance Type
COSMOS 2406 LEO 2024-11-02 11:05:36 0.0001532608 392.0 (m) PAYLOAD

Associated space launch

Chinese polar orbiting meteorological satellite

FENGYUN 1C DEB was lifted into orbit during the mission ‘Long March 4B | Feng Yun 1C’, on board a Long March 4B space rocket.

The launch took place on May 10, 1999, 1:33 a.m. from Launch Complex 7.

For more information about the launch, click the button.

Launch to space Long March 4B | Feng Yun 1C
Long March 4B | Feng Yun 1C

Agency: N/A

Status: Launch Successful

Launch date: May 10, 1999, 1:33 a.m. UTC

Rocket: Long March 4B

Launch pad: Launch Complex 7

Location: Taiyuan Satellite Launch Center, People's Republic of China

...

Latest news about this satellite

There are no fresh news available about this satellite. Check back as we update our databases every day.


Newsletter sign-up

Weekly statistics, charts and insights to help you stay on top of the space industry.